Location: Taukkyan
(23.1052°N, 94.0030°E)
Time: 07:13:39
(UTC+00:00)

USA 229 - Pass Details

Date: 06 July 2020
Orbit: 980 x 1233 km, 63.4° (Epoch: 24 June)

Event Time Altitude Azimuth Distance (km) Brightness Sun altitude
Rises 14:05:31 0° 326° (NNW) 4,056 8.0 -19.0°
Reaches altitude 10° 14:08:15 10° 322° (NW) 3,120 7.2 -19.5°
Maximum altitude 14:15:34 55° 247° (WSW) 1,436 4.5 -20.9°
Enters shadow 14:21:01 20° 177° (S) 2,524 5.3 -21.9°
